Weather History for KC75 - June, 2013

Change the Weather History Date:

Friday, June 14, 2013

  Actual Average (KPIA) Record (KPIA)
Temperature  
Mean Temperature 66 °F 72 °F  
Max Temperature 78 °F 82 °F 99 °F (1987)
Min Temperature 53 °F 61 °F 45 °F (1942)
Degree Days  
Heating Degree Days 0 1  
Month to date heating degree days 17  
Since 1 June heating degree days 17  
Since 1 July heating degree days 5830  
Cooling Degree Days 0 7  
Month to date cooling degree days 78  
Year to date cooling degree days 159  
Since 1 June cooling degree days 78  
Growing Degree Days 16 (Base 50)    
Moisture  
Dew Point 55 °F    
Average Humidity 66    
Maximum Humidity 92    
Minimum Humidity 43    
Precipitation  
Precipitation 0.00 in 0.12 in 1.88 in (1970)
Month to date precipitation 1.65  
Year to date precipitation 15.98  
Snow  
Snow 0.00 in 0.00 in 0.00 in ()
Month to date snowfall 0.0  
Since 1 June snowfall 0.0  
Since 1 July snowfall 24.6  
Snow Depth -    
Sea Level Pressure  
Sea Level Pressure 30.06 in    
Wind  
Wind Speed 4 mph (NNE)    
Max Wind Speed 10 mph    
Max Gust Speed -    
Visibility 10 miles    
Events      
T = Trace of Precipitation, MM = Missing Value Source: NWS Daily Summary

Daily Weather History Graph

Daily Weather History Graph

Search for Another Location

Airport or City:

Trip Planner

Search our weather history database for the weather conditions in past years. The results will help you decide how hot, cold, wet, or windy it might be!

Date:

Astronomy

Jun. 14, 2013 Rise Set
Actual Time 5:24 AM CDT 8:31 PM CDT
Civil Twilight 4:51 AM CDT 9:04 PM CDT
Nautical Twilight 4:08 AM CDT 9:47 PM CDT
Astronomical Twilight 3:17 AM CDT 10:38 PM CDT
Moon 11:02 AM CDT (6/14) No Moon Set
Length of Visible Light 16h 13m
Length of Day
15h 06m
Waxing Crescent, 30% of the Moon is Illuminated
Jun 14
Waxing Crescent
Jun 16
First Quarter
Jun 23
Full
Jun 29
Last Quarter
Jul 8
New

Hourly Weather History & Observations

Time (CDT) Temp. Dew Point Humidity Pressure Visibility Wind Dir Wind Speed Gust Speed Precip Events Conditions
12:15 AM 64.2 °F 55.8 °F 74% 30.02 in 10.0 mi East 10.4 mph - N/A   Clear
12:35 AM 63.5 °F 55.4 °F 75% 30.03 in 10.0 mi East 8.1 mph - N/A   Clear
12:55 AM 62.6 °F 54.9 °F 76% 30.03 in 10.0 mi East 6.9 mph - N/A   Clear
1:15 AM 62.1 °F 54.5 °F 76% 30.04 in 10.0 mi East 4.6 mph - N/A   Clear
1:35 AM 61.0 °F 54.5 °F 79% 30.04 in 10.0 mi East 4.6 mph - N/A   Clear
1:55 AM 60.3 °F 54.5 °F 81% 30.05 in 10.0 mi ENE 3.5 mph - N/A   Clear
2:15 AM 59.9 °F 54.7 °F 83% 30.05 in 10.0 mi ENE 4.6 mph - N/A   Clear
2:35 AM 60.1 °F 54.3 °F 81% 30.06 in 10.0 mi ENE 3.5 mph - N/A   Clear
2:55 AM 59.0 °F 53.6 °F 82% 30.07 in 10.0 mi Calm Calm - N/A   Clear
3:15 AM 58.5 °F 53.1 °F 82% 30.07 in 10.0 mi Calm Calm - N/A   Clear
3:35 AM 57.9 °F 52.9 °F 83% 30.07 in 10.0 mi Calm Calm - N/A   Clear
3:55 AM 57.9 °F 52.3 °F 82% 30.08 in 10.0 mi Calm Calm - N/A   Clear
4:15 AM 57.4 °F 52.0 °F 82% 30.07 in 10.0 mi Calm Calm - N/A   Clear
4:35 AM 55.4 °F 52.3 °F 89% 30.07 in 10.0 mi Calm Calm - N/A   Clear
4:55 AM 55.6 °F 51.6 °F 87% 30.09 in 10.0 mi Calm Calm - N/A   Clear
5:15 AM 54.5 °F 51.8 °F 91% 30.09 in 10.0 mi Calm Calm - N/A   Clear
5:35 AM 53.6 °F 51.1 °F 91% 30.09 in 10.0 mi Calm Calm - N/A   Clear
5:55 AM 54.3 °F 52.0 °F 92% 30.10 in 10.0 mi Calm Calm - N/A   Clear
6:15 AM 55.9 °F 52.9 °F 89% 30.09 in 10.0 mi Calm Calm - N/A   Clear
6:35 AM 58.6 °F 53.2 °F 82% 30.11 in 10.0 mi Calm Calm - N/A   Clear
6:55 AM 59.9 °F 53.8 °F 80% 30.11 in 10.0 mi North 3.5 mph - N/A   Clear
7:15 AM 60.4 °F 54.3 °F 80% 30.11 in 10.0 mi NNW 3.5 mph - N/A   Clear
7:35 AM 61.2 °F 52.5 °F 73% 30.12 in 10.0 mi NE 4.6 mph - N/A   Clear
7:55 AM 62.1 °F 52.2 °F 70% 30.12 in 10.0 mi NE 4.6 mph - N/A   Clear
8:15 AM 62.6 °F 52.5 °F 70% 30.13 in 10.0 mi NE 5.8 mph - N/A   Clear
8:35 AM 63.7 °F 53.4 °F 69% 30.13 in 10.0 mi NNE 4.6 mph - N/A   Clear
8:55 AM 64.2 °F 54.0 °F 69% 30.13 in 10.0 mi North 4.6 mph - N/A   Clear
9:15 AM 64.4 °F 54.5 °F 70% 30.13 in 10.0 mi NNE 3.5 mph - N/A   Clear
9:35 AM 65.5 °F 54.3 °F 67% 30.13 in 10.0 mi Calm Calm - N/A   Clear
9:55 AM 66.9 °F 54.5 °F 64% 30.12 in 10.0 mi ENE 5.8 mph - N/A   Clear
10:15 AM 68.2 °F 54.7 °F 62% 30.11 in 10.0 mi NNE 4.6 mph - N/A   Clear
10:35 AM 69.3 °F 54.0 °F 58% 30.09 in 10.0 mi NE 3.5 mph - N/A   Clear
10:55 AM 70.3 °F 54.1 °F 56% 30.08 in 10.0 mi ENE 6.9 mph - N/A   Clear
11:15 AM 70.9 °F 54.0 °F 55% 30.08 in 10.0 mi ENE 4.6 mph - N/A   Clear
11:35 AM 72.5 °F 54.9 °F 54% 30.09 in 10.0 mi SSE 3.5 mph - N/A   Clear
11:55 AM 73.0 °F 53.2 °F 50% 30.11 in 10.0 mi Calm Calm - N/A   Clear
12:15 PM 72.7 °F 56.3 °F 56% 30.11 in 10.0 mi NW 5.8 mph - N/A   Clear
12:35 PM 73.4 °F 55.2 °F 53% 30.10 in 10.0 mi NW 4.6 mph - N/A   Clear
12:55 PM 73.9 °F 56.1 °F 54% 30.11 in 10.0 mi NNW 4.6 mph - N/A   Clear
1:15 PM 75.2 °F 56.1 °F 51% 30.11 in 10.0 mi North 3.5 mph - N/A   Clear
1:35 PM 74.8 °F 55.4 °F 51% 30.11 in 10.0 mi NW 5.8 mph - N/A   Clear
1:55 PM 75.6 °F 54.7 °F 48% 30.10 in 10.0 mi West 4.6 mph - N/A   Clear
2:15 PM 75.7 °F 54.1 °F 47% 30.09 in 10.0 mi West 3.5 mph - N/A   Clear
2:35 PM 76.3 °F 53.2 °F 45% 30.09 in 10.0 mi Calm Calm - N/A   Clear
2:55 PM 76.3 °F 52.0 °F 43% 30.08 in 10.0 mi Calm Calm - N/A   Clear
3:15 PM 77.0 °F 53.4 °F 44% 30.07 in 10.0 mi Calm Calm - N/A   Clear
3:35 PM 77.0 °F 54.3 °F 45% 30.06 in 10.0 mi WSW 3.5 mph - N/A   Clear
3:55 PM 77.0 °F 53.6 °F 44% 30.05 in 10.0 mi Calm Calm - N/A   Clear
4:15 PM 76.6 °F 55.0 °F 47% 30.04 in 10.0 mi West 4.6 mph - N/A   Clear
4:35 PM 77.0 °F 54.7 °F 46% 30.03 in 10.0 mi SSW 4.6 mph - N/A   Clear
4:55 PM 77.9 °F 54.0 °F 43% 30.01 in 10.0 mi SSE 3.5 mph - N/A   Clear
5:15 PM 77.5 °F 54.9 °F 45% 30.00 in 10.0 mi SSW 5.8 mph - N/A   Clear
5:35 PM 78.4 °F 54.5 °F 43% 30.00 in 10.0 mi WSW 3.5 mph - N/A   Clear
5:55 PM 77.2 °F 53.2 °F 43% 29.98 in 10.0 mi Calm Calm - N/A   Clear
6:15 PM 76.5 °F 57.2 °F 51% 29.98 in 10.0 mi NW 3.5 mph - N/A   Clear
6:35 PM 77.0 °F 56.5 °F 49% 29.98 in 10.0 mi NNW 4.6 mph - N/A   Clear
6:55 PM 75.9 °F 56.8 °F 51% 30.00 in 10.0 mi WNW 4.6 mph - N/A   Clear
7:15 PM 75.2 °F 57.4 °F 54% 30.01 in 10.0 mi Calm Calm - N/A   Scattered Clouds
7:35 PM 72.1 °F 58.5 °F 62% 30.01 in 10.0 mi Calm Calm - N/A   Clear
7:55 PM 71.6 °F 61.0 °F 69% 30.00 in 10.0 mi Calm Calm - N/A   Clear
8:15 PM 70.0 °F 60.1 °F 71% 30.00 in 10.0 mi Calm Calm - N/A   Clear
8:35 PM 70.2 °F 58.3 °F 66% 30.02 in 10.0 mi Calm Calm - N/A   Clear
8:55 PM 68.2 °F 57.4 °F 68% 30.02 in 10.0 mi Calm Calm - N/A   Clear
9:15 PM 68.0 °F 57.7 °F 70% 30.02 in 10.0 mi Calm Calm - N/A   Clear
9:35 PM 67.1 °F 58.5 °F 74% 30.03 in 10.0 mi Calm Calm - N/A   Clear
9:55 PM 66.7 °F 57.0 °F 71% 30.02 in 10.0 mi Calm Calm - N/A   Clear
10:15 PM 65.1 °F 56.1 °F 73% 30.00 in 10.0 mi Calm Calm - N/A   Clear
10:35 PM 63.7 °F 57.6 °F 80% 29.99 in 10.0 mi ESE 3.5 mph - N/A   Clear
10:55 PM 66.2 °F 56.7 °F 71% 29.99 in 10.0 mi Calm Calm - N/A   Clear
11:15 PM 63.1 °F 57.6 °F 82% 29.98 in 10.0 mi Calm Calm - N/A   Clear
11:35 PM 64.6 °F 56.8 °F 76% 29.98 in 10.0 mi Calm Calm - N/A   Clear
11:55 PM 67.3 °F 55.8 °F 66% 29.98 in 10.0 mi Calm Calm - N/A   Clear